Regional Weather Roundup
Issued by NWS

Home | Current Version | Previous Version | Text Only | Print | Product List | Glossary On
Versions: 1 2 3 4 5 6 7 8 9 10 11 12 13 14 15 16 17 18 19 20 21 22 23 24 25 26 27 28 29 30 31 32 33 34 35 36 37 38 39 40 41 42 43 44 45 46 47 48 49 50
000
ASUS44 KBMX 271110
RWRAL

ALABAMA REGIONAL WEATHER ROUNDUP
NATIONAL WEATHER SERVICE BIRMINGHAM AL
600 AM CDT WED AUG 27 2014

NOTE: "FAIR" INDICATES FEW OR NO CLOUDS BELOW 12,000 FEET
WITH NO SIGNIFICANT WEATHER AND/OR OBSTRUCTIONS TO VISIBILITY.

THE REMARK "TC" DENOTES TEMPERATURE IN DEGREES CELSIUS.

ALZ001>011-014-016>018-020-271200-
NORTH ALABAMA

CITY           SKY/WX    TMP DP  RH WIND       PRES   REMARKS
MUSCLE SHOALS  FOG       64  62  93 CALM      30.10R VSB 1/4
HUNTSVILLE     PTCLDY    69  65  86 CALM      30.09R
DECATUR        CLEAR     64  63  96 CALM      30.09R
HALEYVILLE     FAIR      63  63 100 CALM      30.12R
GADSDEN        CLEAR     63  61  94 CALM      30.08S
$$

ALZ012-013-022-023-030>036-040>044-271200-
WEST CENTRAL ALABAMA

CITY           SKY/WX    TMP DP  RH WIND       PRES   REMARKS
TUSCALOOSA     CLEAR     65  63  93 CALM      30.06R
$$

ALZ015-024>027-033>036-040>044-271200-
CENTRAL ALABAMA

CITY           SKY/WX    TMP DP  RH WIND       PRES   REMARKS
BIRMINGHAM     CLEAR     66  62  87 CALM      30.09R
MONTGOMERY     CLEAR     68  64  87 N3        30.04R
SHELBY CO ARPT CLEAR     65  63  93 CALM      30.07R
MAXWELL AFB    CLEAR     68  64  89 N5        30.04R
GREENVILLE     FAIR      66  62  87 CALM      30.03R
$$

ALZ019-021-028-029-037-038-045>048-271200-
EAST CENTRAL ALABAMA

CITY           SKY/WX    TMP DP  RH WIND       PRES   REMARKS
ANNISTON       CLEAR     65  62  90 NE3       30.09R
ALEXANDER CITY CLEAR     68  62  80 CALM      30.08R
AUBURN         CLEAR     64  57  77 NE8       30.10R
$$

ALZ051>064-271200-
SOUTHWEST ALABAMA

CITY           SKY/WX    TMP DP  RH WIND       PRES   REMARKS
MOBILE         PTCLDY    73  69  87 CALM      30.00R
BROOKLEY FIELD PTCLDY    77  71  82 NE5       30.01R
EVERGREEN      CLEAR     68  65  90 CALM      30.02R
$$

ALZ049-050-065>069-271200-
SOUTHEAST ALABAMA

CITY           SKY/WX    TMP DP  RH WIND       PRES   REMARKS
DOTHAN         CLEAR     67  64  90 CALM      30.06R
OZARK          CLEAR     68  65  89 NE2       30.02R
TROY           CLEAR     64  61  90 CALM      30.04R
EUFAULA        FAIR      65  62  90 CALM      30.03R
$$



USA.gov is the U.S. government's official web portal to all federal, state and local government web resources and services.